La Crosse Municipal Airport
KLSE : now visible

Airfield :











YOU CAN JOIN US ON...

 
LOGIN :

Register | Disclaimer

   EN    FR    IT 

 









Legend :    VFR   Marginal VFR   IFR   Intensive IFR   Very Intensive IFR
Visi :
Ceiling :
>= 8 km
>= 3000ft
5 to 8 km
1000 to 3000 ft
1500m to 5 km
500 to 1000 ft
800 to 1500m
200 to 500 ft
< 800m
< 200 ft
Symbols :   Thunderstorms  Fog  Heavy snow  Heavy precipitations  Wind > 20 kt






- Airport Elevation : 655 ft
- IATA code : LSE


KLSE - La Crosse Municipal

CURRENT METAR :
  • 220153Z 17006KT 10SM BKN050 M12/M19 A3029 RMK AO2 SLP285 T11171194

EXPIRED METARs :
  • 220053Z 18012G20KT 10SM CLR M12/M21 A3028 RMK AO2 SLP284 T11171206
  • 212353Z 18013G22KT 10SM CLR M12/M21 A3028 RMK AO2 SLP284 T11171211 11106 21144 56024

TAF KLSE
Valid from the 22 at 02:00 until the 23 at 00:00 UTC


220211Z 2202/2224 18011KT P6SM BKN050
FM220300 20015KT 1 1/2SM -SN BR OVC040
FM220500 20014KT 4SM -SN BR OVC025
FM220900 22012G22KT P6SM OVC023
FM221300 30013KT P6SM BKN045
KZMP FIR / North America



MET'MAP, your aeronautical weather chart ! - Copyright ORBIFLY December 2007 - Disclaimer

ORBIFLY MET'MAP TEAM :

Programming & Development : Alexandra Zaïnal
Concept & original design : Baudouin d'Aumeries
Assistance for programming : Marc-Olivier Méhu
Technical & hardware support : Manuel Goepfert

Contact : metmap@orbifly.com




SOURCES & CREDITS :

   NOAA       Earth
Advisory